GFSMA_sfc_rhum_189.txt.gz
RH
57 46 45 38 39 36 37 35 34 37 38 38 38 40 40 45 49 50 60 70 69 70 66 68 71 70 67 68 68 68 68 68 67 67 68 67 69 68 70 69 68 67 68
56 43 43 37 37 32 33 33 37 37 38 41 46 46 46 46 47 54 53 64 73 71 71 71 70 68 70 70 70 70 70 69 69 67 68 66 67 66 67 67 69 68 68
57 52 44 39 32 34 40 38 40 37 39 41 46 46 45 47 45 48 49 54 63 76 74 73 74 71 72 72 69 72 72 72 72 70 69 69 68 70 69 69 68 68 68
55 56 42 39 36 36 34 35 36 39 42 43 45 42 42 43 46 44 40 44 46 53 70 74 74 74 74 73 72 72 73 72 72 72 70 69 69 69 68 68 69 70 69
55 53 42 42 49 38 40 38 39 43 42 41 39 40 42 45 44 36 44 45 47 45 50 69 71 73 74 74 75 75 74 72 72 72 72 71 70 70 69 71 71 68 69
59 55 42 48 48 41 39 37 44 42 43 40 32 39 40 41 38 45 46 40 45 46 43 52 57 59 70 72 74 75 75 76 74 74 73 72 72 72 72 72 73 73 71
65 59 43 51 52 43 43 48 44 52 45 43 45 51 50 48 45 42 41 43 46 44 50 45 40 46 57 65 72 72 74 76 75 75 73 72 72 71 72 71 71 71 72
71 65 52 52 57 43 52 52 53 50 44 48 46 46 50 48 44 42 40 43 49 44 46 46 48 47 44 48 62 72 73 74 75 74 72 73 72 73 73 75 73 74 75
72 71 67 58 62 50 52 57 56 55 51 52 49 54 54 44 50 44 47 44 51 45 45 47 48 47 50 50 55 62 69 71 74 73 72 71 70 71 75 76 76 76 76
75 72 70 69 71 62 58 58 53 54 53 56 52 48 57 42 44 52 45 47 48 53 52 45 49 48 49 49 65 68 68 69 69 70 70 71 74 75 75 74 74 74 77
80 76 75 75 75 68 64 62 64 60 55 55 52 55 50 57 49 41 52 54 50 49 49 48 46 49 50 47 52 64 67 68 67 68 68 70 67 70 73 74 74 75 76
86 82 76 75 74 70 67 69 67 68 65 57 50 51 51 56 51 45 44 53 55 54 52 50 50 49 48 51 61 65 66 66 66 66 65 67 66 67 69 71 73 78 80
89 86 82 80 80 72 72 68 77 71 68 69 63 56 54 50 47 33 44 50 52 61 64 52 48 48 46 52 56 62 66 65 67 64 68 67 64 65 66 66 68 76 80
86 83 83 80 77 76 74 73 71 72 78 73 74 69 69 64 54 43 49 51 60 62 63 66 50 49 51 51 56 61 59 65 66 66 69 67 64 64 65 66 67 68 70
84 84 83 82 78 78 75 76 78 76 73 79 81 79 73 69 66 57 56 47 52 60 59 64 57 50 49 54 60 48 56 66 66 67 67 65 64 64 65 66 66 66 66
85 89 88 84 80 79 78 74 76 75 74 72 72 66 69 67 63 60 58 50 46 49 52 55 53 52 47 43 54 51 60 66 66 66 66 65 62 64 65 65 65 66 66
91 89 89 87 86 83 77 77 76 77 79 73 70 73 68 70 74 70 69 56 52 46 58 65 54 52 54 49 52 46 52 58 66 65 64 66 65 64 64 64 65 65 65
93 90 89 88 87 87 85 83 83 82 79 80 80 77 71 62 73 71 63 60 57 58 69 77 68 60 60 58 62 52 30 30 46 61 62 62 64 66 64 64 64 64 64
93 91 90 90 91 92 96 96 94 92 88 86 85 82 76 76 75 71 73 77 71 57 70 74 77 65 60 60 68 66 57 45 27 58 61 59 60 61 64 64 63 63 63
94 93 90 90 90 91 91 93 95 98 89 78 77 80 80 80 82 76 78 81 75 74 71 75 75 71 63 64 64 68 66 50 41 24 34 46 49 59 64 60 62 63 64
92 89 91 90 90 92 90 90 85 84 81 80 78 77 75 74 78 82 78 80 74 73 75 74 74 76 79 80 76 68 61 65 57 52 39 35 39 39 47 54 59 62 62
94 94 93 94 95 90 94 87 81 78 74 71 75 67 68 82 82 87 84 79 71 73 70 63 69 76 92 88 82 74 69 72 67 70 81 53 40 44 45 52 64 62 63
99 99 100 99 100 99 90 84 75 72 76 79 66 67 74 71 77 75 78 75 70 66 68 54 62 74 81 76 70 60 57 54 57 58 62 66 48 57 45 47 61 63 63
100 100 100 100 100 100 94 80 81 98 97 100 96 90 79 86 77 66 65 61 66 83 92 93 88 90 74 69 56 49 47 44 51 62 62 64 71 76 56 60 60 62 63
100 100 100 100 100 100 96 92 88 97 100 100 100 100 100 100 74 63 86 92 91 93 83 77 75 72 71 69 70 50 63 53 68 87 88 90 88 84 84 84 68 63 64
100 100 100 100 100 100 93 88 82 83 86 91 96 100 88 86 78 81 92 91 91 89 87 84 83 81 82 83 86 98 68 67 86 89 92 89 85 85 94 90 80 73 73

GFSMA_sfc_rhum_192.txt.gz
RH
73 66 68 64 64 64 66 68 63 60 56 54 54 52 63 66 68 71 80 79 77 72 69 70 69 71 70 69 69 68 68 68 65 69 67 68 67 69 68 69 69 69 69
74 65 69 60 59 56 58 58 66 65 63 63 63 62 64 64 69 73 78 81 76 75 74 73 71 72 70 71 69 69 67 68 67 68 68 70 69 69 67 67 67 68 68
78 68 68 58 57 56 62 64 62 64 68 64 68 69 71 64 65 68 78 79 76 78 76 75 70 70 69 69 71 69 68 68 67 67 70 69 70 71 71 70 69 68 70
81 71 64 64 66 63 57 62 58 66 69 71 72 70 69 67 66 66 67 68 74 71 74 74 72 69 69 68 69 69 69 70 70 69 68 68 67 69 69 69 69 69 69
77 68 72 72 70 62 59 56 59 64 66 68 66 67 69 68 65 51 62 62 66 70 74 72 72 70 70 70 70 70 71 69 70 70 70 70 68 69 69 68 68 70 72
78 72 66 68 68 60 61 58 60 63 61 63 44 58 67 67 68 68 65 53 61 62 68 74 76 74 71 71 70 71 72 72 70 71 70 69 68 68 69 68 69 71 71
77 77 73 69 66 58 58 60 63 65 62 61 62 73 67 68 69 70 66 62 64 62 67 75 69 74 72 71 70 71 72 72 69 69 70 71 71 71 71 72 73 72 73
82 78 69 61 60 64 65 59 57 61 61 59 67 66 79 75 69 65 67 63 71 64 63 60 62 66 68 73 75 70 72 72 71 70 70 70 69 72 71 71 71 73 74
83 78 74 66 71 69 59 61 60 58 62 62 57 75 72 77 72 71 66 60 67 67 67 65 62 62 65 71 73 73 71 70 69 69 69 69 69 70 71 71 71 70 71
84 80 78 70 74 75 60 61 60 56 57 66 64 62 63 63 71 79 69 70 67 63 74 68 69 64 65 73 71 68 68 69 67 66 63 64 65 66 66 68 70 71 74
84 82 80 76 79 76 66 69 73 63 60 67 65 61 71 60 62 69 75 77 68 66 68 74 72 72 65 67 75 70 67 66 63 64 64 65 66 66 66 66 67 70 74
90 86 83 82 84 78 76 72 73 69 63 62 67 63 64 62 69 63 67 74 76 72 71 70 75 72 70 76 63 66 66 66 66 66 64 66 66 67 67 67 67 66 66
94 91 88 88 89 80 77 75 75 73 74 73 66 69 69 62 63 60 63 73 74 85 75 73 72 71 61 72 71 69 67 66 66 66 65 65 66 66 67 67 67 67 68
90 88 89 88 89 84 79 79 82 77 75 77 76 75 74 74 77 61 64 76 92 89 84 78 70 69 71 72 72 68 72 67 67 67 65 65 66 66 67 67 66 66 67
89 90 90 90 87 87 82 82 83 82 78 77 78 82 81 84 81 77 62 69 76 90 88 76 76 66 69 68 71 69 70 67 67 67 65 65 66 66 66 66 65 66 66
90 92 93 92 90 88 84 84 88 83 82 88 86 86 88 86 82 86 85 64 63 75 82 70 71 68 62 57 69 69 70 68 68 67 66 65 65 66 65 65 65 66 66
92 94 94 93 93 89 89 88 86 85 81 86 85 82 82 76 86 86 85 75 66 71 81 77 67 67 65 63 68 75 73 75 80 67 65 66 65 65 64 64 65 65 66
95 94 95 94 90 90 91 90 90 87 85 85 84 83 85 77 87 86 88 78 78 79 75 85 75 73 70 67 79 74 70 52 70 63 64 64 65 64 63 64 64 64 64
98 97 94 93 91 91 94 91 88 85 85 85 86 84 91 88 90 91 94 95 93 84 80 83 82 80 78 81 84 78 68 66 43 63 62 62 64 62 63 63 63 64 64
98 97 94 93 91 92 90 92 91 93 94 93 92 91 93 90 88 90 92 94 94 88 85 84 84 83 84 86 88 90 90 76 58 44 57 64 65 63 62 63 64 64 63
94 93 95 94 93 91 90 92 93 96 97 98 97 94 91 90 87 90 91 93 93 86 87 86 88 86 88 91 90 88 89 94 80 91 63 67 78 76 70 65 65 64 64
98 96 95 94 95 89 92 92 91 97 98 98 98 93 92 91 90 88 89 85 87 87 87 85 86 86 87 88 95 90 89 90 95 93 96 76 67 75 73 75 63 64 62
99 99 100 99 100 99 97 94 96 98 99 100 98 89 84 83 89 86 81 75 84 88 88 79 82 86 89 86 89 88 88 91 96 95 93 96 86 91 73 62 63 64 62
100 100 100 100 99 100 98 100 99 100 100 100 96 94 93 94 89 84 80 85 95 96 99 98 90 92 91 89 86 76 76 79 82 92 92 96 96 97 88 84 64 66 63
100 100 99 99 99 99 100 100 99 99 100 100 100 100 98 96 87 83 89 95 97 96 82 81 81 80 79 81 81 81 87 78 97 99 97 97 97 98 96 97 90 67 64
100 99 100 100 99 99 100 100 100 98 98 99 99 97 94 93 80 83 90 92 96 97 93 91 92 89 90 90 96 97 96 90 98 97 98 97 98 96 99 98 96 94 96

GFSMA_sfc_rhum_198.txt.gz
RH
92 93 94 91 95 97 94 96 95 88 83 70 84 83 83 87 88 90 92 82 77 75 61 64 64 68 70 72 70 64 70 64 65 66 67 67 68 67 68 67 69 69 70
89 87 93 95 94 90 91 91 89 86 83 76 90 86 82 85 92 96 97 86 78 75 72 69 68 68 68 68 68 62 64 68 70 69 67 68 68 69 69 69 68 67 67
90 84 85 87 87 85 88 87 87 82 80 73 91 89 86 88 90 94 94 94 88 82 77 73 72 70 70 68 69 68 65 65 69 69 68 68 68 71 69 69 70 67 66
86 82 82 85 84 80 81 80 80 82 79 86 97 93 90 89 91 90 90 90 84 83 82 78 73 74 68 69 71 68 67 65 68 69 68 68 68 66 66 67 67 70 68
86 87 84 81 78 78 77 74 75 69 74 92 91 94 92 92 90 80 86 87 87 80 81 80 79 76 73 72 70 71 68 68 68 65 68 68 66 68 67 67 68 70 69
92 92 86 84 79 78 76 72 70 74 66 78 75 88 94 92 89 88 84 80 83 80 77 76 79 77 73 74 73 72 72 70 70 68 66 67 68 69 68 68 68 67 67
95 94 94 90 82 85 79 71 66 70 73 69 78 92 91 91 95 90 87 86 81 84 86 81 87 81 75 72 72 73 73 71 69 68 69 67 69 69 68 68 68 68 69
96 97 96 93 89 82 80 78 69 74 64 69 72 78 85 78 82 89 85 84 86 82 81 80 82 77 78 76 77 71 71 72 70 68 69 69 68 66 66 65 64 64 64
97 97 97 96 93 90 86 76 71 68 68 74 63 78 90 91 93 94 89 83 83 85 80 78 78 72 78 84 79 73 74 72 71 72 67 62 64 63 63 63 62 62 64
97 95 96 96 95 92 86 82 75 67 68 82 69 62 77 76 82 97 86 85 78 77 81 81 80 74 77 79 78 73 71 76 70 64 62 63 64 63 63 63 63 63 63
94 94 94 95 98 97 92 90 86 82 73 73 78 70 74 79 83 79 90 91 79 76 78 79 78 78 74 76 80 77 69 75 69 63 64 63 64 64 63 64 64 64 64
94 95 95 94 93 93 97 95 93 88 83 80 76 65 67 70 74 71 78 83 80 79 75 80 78 78 77 76 73 73 68 74 70 66 65 63 64 64 64 64 65 64 66
95 89 93 94 92 90 90 94 94 94 93 93 88 78 72 62 50 57 64 78 80 82 91 86 82 80 77 77 75 72 71 75 71 67 66 64 65 64 64 65 66 66 67
86 90 92 86 84 85 87 89 94 93 90 91 91 87 80 73 63 54 68 78 91 88 92 93 82 77 77 79 75 72 74 73 72 68 67 66 66 65 65 66 66 66 67
89 88 84 85 83 81 80 84 88 92 94 91 91 92 87 83 82 73 69 66 74 96 96 92 93 81 87 80 75 76 78 70 71 69 68 66 66 66 65 66 66 66 67
86 86 84 82 82 82 82 83 85 84 92 92 89 91 89 88 84 82 75 66 66 77 90 89 93 91 88 83 82 84 81 76 75 72 68 67 66 66 66 66 66 66 66
85 84 81 80 82 83 85 85 82 82 86 93 88 89 88 86 87 86 81 69 73 73 87 92 92 93 96 97 96 86 84 87 84 72 68 68 67 66 66 66 66 65 64
85 84 84 87 89 83 82 83 84 80 84 93 90 90 88 87 90 87 88 84 81 80 87 97 97 97 97 97 93 92 86 77 80 69 68 68 67 66 66 66 65 65 64
85 86 88 92 87 86 89 90 89 87 81 86 89 90 89 92 94 93 89 91 92 86 89 94 97 96 97 98 96 90 85 84 70 72 72 69 67 66 65 65 64 64 64
89 91 92 90 92 91 93 94 93 94 92 90 91 89 89 91 92 92 92 92 91 92 91 93 96 98 97 98 92 92 89 87 82 66 68 71 69 67 65 65 64 63 62
92 92 94 92 94 96 98 99 99 99 99 99 96 94 93 92 91 90 91 92 93 94 95 96 98 98 98 98 97 93 88 87 85 83 78 80 80 81 74 66 63 62 62
95 98 98 98 99 97 99 100 98 98 98 98 98 97 97 96 96 95 94 90 89 93 95 96 97 97 97 94 97 93 92 88 86 89 88 85 80 81 74 75 63 62 61
99 99 100 100 100 100 99 98 97 97 98 98 97 98 97 96 95 97 98 96 93 88 84 87 93 90 93 88 86 90 86 77 82 88 79 92 90 92 82 66 66 63 62
100 100 100 100 100 100 98 98 98 100 100 100 100 99 98 98 98 97 98 98 97 96 95 91 86 91 85 83 78 74 77 78 94 84 78 95 97 97 86 84 67 64 62
100 100 100 100 100 100 98 98 98 99 100 99 100 100 100 100 98 94 100 100 100 100 97 93 91 88 84 81 77 77 87 80 97 97 98 97 99 99 98 98 92 67 65
100 100 99 100 100 99 100 100 99 98 99 98 99 100 98 99 96 95 99 98 98 99 100 100 98 92 89 87 80 79 82 81 98 97 94 98 99 98 100 98 97 98 96

GFSMA_sfc_rhum_201.txt.gz
RH
99 99 98 98 98 98 97 97 95 91 83 65 95 88 88 90 95 99 97 82 78 70 65 64 65 70 70 64 66 63 65 64 66 65 66 66 69 68 67 68 69 70 71
95 92 96 96 98 98 97 95 93 89 85 79 96 94 87 88 94 97 95 87 84 76 68 64 68 70 72 71 67 68 66 65 68 65 66 67 66 67 67 66 66 65 70
96 92 92 91 90 92 96 96 94 88 87 82 95 96 91 92 94 96 97 89 86 83 74 66 70 72 70 67 64 65 66 71 69 69 70 69 70 69 68 66 66 67 66
95 89 88 88 87 88 87 86 89 89 86 87 98 97 96 95 97 98 97 97 97 84 84 79 73 71 73 72 68 68 68 68 70 68 68 69 70 68 67 67 67 67 68
94 95 92 88 88 88 88 86 84 76 73 90 97 98 98 97 98 91 97 97 96 97 96 82 80 76 72 72 72 70 70 70 70 70 68 68 67 68 67 67 66 66 66
96 97 95 95 97 95 94 90 86 81 66 71 81 92 94 96 98 97 96 92 96 95 95 90 85 84 79 73 72 71 72 73 69 69 69 68 71 71 69 68 66 66 66
98 98 98 96 94 94 92 93 92 87 78 83 93 94 88 92 97 98 98 97 93 93 92 83 81 82 81 78 74 72 72 73 72 71 70 73 72 71 70 66 65 63 61
98 99 99 98 96 94 93 93 92 92 89 88 90 86 98 91 89 90 91 86 94 90 89 82 80 78 81 81 82 74 73 73 73 72 73 70 70 69 65 62 62 63 66
94 95 96 94 92 98 96 94 94 92 93 91 77 91 98 95 94 89 92 88 89 90 88 87 84 76 78 82 82 82 80 76 73 73 72 70 63 64 64 62 62 62 61
91 93 93 93 93 94 95 97 94 91 90 93 92 82 88 85 90 99 93 91 88 87 90 85 81 79 82 87 79 78 79 83 77 72 67 62 62 62 62 61 61 62 62
87 90 94 96 96 97 95 96 97 98 94 92 91 90 88 95 94 96 97 97 91 87 84 83 81 82 81 84 84 78 78 77 77 67 65 62 62 61 62 61 62 62 61
92 90 88 94 96 96 96 95 93 96 95 95 95 90 90 90 93 94 93 94 95 92 85 82 83 81 80 82 77 76 75 77 76 68 64 63 62 61 62 62 62 62 63
75 72 89 91 93 95 94 92 92 90 94 96 93 94 91 90 87 88 91 93 95 94 93 87 82 80 77 83 82 76 75 81 77 70 66 65 64 64 63 62 62 63 63
67 71 83 89 90 90 88 87 89 90 87 95 93 92 92 91 89 91 91 93 98 97 98 98 82 81 80 80 79 77 78 80 78 74 70 68 66 65 65 64 64 64 65
77 82 88 92 94 93 90 88 89 88 86 86 92 93 91 89 91 90 89 88 85 97 98 99 96 83 86 83 81 84 82 78 76 75 75 72 67 67 67 66 65 65 66
85 90 92 90 88 86 86 87 85 82 85 87 87 91 93 89 87 91 92 90 88 84 94 95 95 90 87 83 81 85 82 79 78 77 77 74 71 69 68 68 66 66 66
87 90 89 90 88 84 82 85 82 81 85 88 87 83 92 91 93 95 90 89 88 89 91 98 95 93 93 92 89 87 85 90 86 80 79 76 72 70 69 68 67 66 66
87 86 89 86 84 84 84 86 90 88 87 86 86 84 84 90 90 91 91 90 88 90 90 98 98 97 95 93 94 94 91 85 88 80 78 74 72 70 69 68 67 66 65
88 85 83 87 88 88 92 90 88 87 87 84 82 82 82 90 94 93 91 90 89 89 89 93 98 98 98 98 98 97 96 94 84 79 74 72 70 70 69 68 67 66 65
89 86 86 90 92 93 92 91 91 94 95 93 92 89 82 80 92 92 91 91 90 93 93 95 98 98 98 99 93 96 98 93 87 69 72 76 73 71 70 69 67 65 65
89 90 94 94 95 97 94 97 97 95 95 95 91 91 91 84 89 87 89 92 91 94 97 97 98 98 98 98 97 97 93 94 93 88 88 88 83 79 75 68 66 65 64
97 98 97 97 98 96 97 97 97 97 98 100 99 94 91 90 94 94 88 86 86 95 97 97 97 96 97 96 98 96 92 95 97 93 94 95 83 81 75 72 65 64 63
98 98 98 98 99 98 98 98 99 100 100 100 99 99 99 97 95 94 95 92 91 88 86 92 96 91 96 98 96 97 87 78 84 93 88 95 86 89 76 65 66 64 64
100 99 99 99 99 100 99 98 98 100 100 100 100 100 97 97 95 95 95 96 96 94 94 90 88 92 88 93 85 81 82 76 88 85 82 92 94 98 81 80 68 65 64
99 99 100 99 99 99 100 99 99 100 100 100 100 100 100 100 97 93 100 100 100 100 98 92 91 90 89 91 93 93 93 75 94 95 95 97 98 99 96 97 92 67 65
99 99 99 99 99 99 100 100 100 100 99 99 99 100 99 99 97 94 99 100 100 100 100 100 100 98 97 97 86 80 78 78 93 98 92 98 98 96 99 98 98 98 94